This is the latest recevied weather packets stored in our database for station/object AB1AU. If no packets are shown the sender has not sent any weather packets the latest 10 day(s).
| Time | Temp. | Humidity | Pressure | Rain* | Wind** | Luminosity | Snow |
|---|---|---|---|---|---|---|---|
| 1777652852 | 13.33° C | 49% | 1007.8 hPa | 0 mm | - | 440 W/m² | - |
| 1777652549 | 13.33° C | 50% | 1007.7 hPa | 0 mm | - | 306 W/m² | - |
| 1777652246 | 13.89° C | 51% | 1007.7 hPa | 0 mm | - | 141 W/m² | - |
| 1777651944 | 13.33° C | 50% | 1007.7 hPa | 0 mm | - | 265 W/m² | - |
| 1777651640 | 12.78° C | 54% | 1007.8 hPa | 0 mm | - | 223 W/m² | - |
| 1777651337 | 12.22° C | 57% | 1007.9 hPa | 0 mm | - | 576 W/m² | - |
| 1777651034 | 12.78° C | 55% | 1007.9 hPa | 0 mm | - | 133 W/m² | - |
| 1777650731 | 12.78° C | 55% | 1007.8 hPa | 0 mm | - | 232 W/m² | - |
| 1777650428 | 12.78° C | 57% | 1007.7 hPa | 0 mm | - | 392 W/m² | - |
| 1777650125 | 12.22° C | 56% | 1007.8 hPa | 0 mm | - | 310 W/m² | - |
| 1777649822 | 12.22° C | 57% | 1007.8 hPa | 0 mm | - | 323 W/m² | - |
| 1777649520 | 12.22° C | 57% | 1008 hPa | 0 mm | - | 185 W/m² | - |
| 1777649215 | 11.67° C | 59% | 1008.1 hPa | 0 mm | - | 80 W/m² | - |
| 1777648912 | 11.67° C | 60% | 1008.1 hPa | 0 mm | - | 103 W/m² | - |
| 1777648610 | 11.67° C | 60% | 1008.2 hPa | 0 mm | - | 134 W/m² | - |
| 1777648307 | 11.67° C | 61% | 1008.3 hPa | 0 mm | - | 174 W/m² | - |
| 1777648003 | 11.67° C | 59% | 1008.2 hPa | 0 mm | - | 182 W/m² | - |
| 1777647699 | 11.67° C | 58% | 1008.4 hPa | 0 mm | - | 235 W/m² | - |
| 1777647395 | 11.67° C | 59% | 1008.3 hPa | 0 mm | - | 174 W/m² | - |
| 1777647093 | 12.22° C | 60% | 1008.3 hPa | 0 mm | - | 244 W/m² | - |
| 1777646790 | 11.67° C | 61% | 1008.5 hPa | 0 mm | - | 331 W/m² | - |
| 1777646490 | 11.67° C | 60% | 1008.6 hPa | 0 mm | - | 456 W/m² | - |
| 1777646186 | 11.67° C | 61% | 1008.4 hPa | 0 mm | - | 640 W/m² | - |
| 1777645884 | 11.67° C | 61% | 1008.5 hPa | 0 mm | - | 386 W/m² | - |
| 1777645581 | 11.11° C | 63% | 1008.6 hPa | 0 mm | - | 319 W/m² | - |
* Rain latest hour (hover to see other rain measurements)
** Current wind speed in m/s (hover to see current wind gust speed)